{"data":{"norad_id":66495,"epoch":"2026-05-25T02:01:55.010208Z","epoch_age_seconds":78173,"freshness":"FRESH","line1":"1 66495U 25263L   26145.08466447  .00027273  00000+0  99697-3 0  9998","line2":"2 66495  42.9990 279.1649 0000243 347.6720  12.4126 15.27579179 30586","mean_motion":15.27579179,"eccentricity":2.43e-5,"inclination_deg":42.999,"raan_deg":279.1649,"arg_perigee_deg":347.672,"mean_anomaly_deg":12.4126,"bstar":0.00099697,"rev_number":3058,"period_min":94.266799377474,"perigee_km":482.88482752824,"apogee_km":483.21828129198,"semimajor_km":6861.1885544101,"source":"CELESTRAK","updated_at":"2026-05-25T13:38:21.243815Z"}}